Time,TemperatureF,DewpointF,PressureIn,WindDirection,WindDirectionDegrees,WindSpeedMPH,WindSpeedGustMPH,Humidity,HourlyPrecipIn,Conditions,Clouds,dailyrainin,SoftwareType,DateUTC
2013-02-23 00:10:00,25.5,20.0,30.33,WNW,293,0.0,2.0,78,0.00,,,0.00,weatherlink.com 1.10,2013-02-23 05:10:00,
2013-02-23 00:25:00,24.8,19.0,30.33,SE,136,0.0,3.0,80,0.00,,,0.00,weatherlink.com 1.10,2013-02-23 05:25:00,
2013-02-23 00:40:00,24.7,19.0,30.33,WNW,291,0.0,4.0,80,0.00,,,0.00,weatherlink.com 1.10,2013-02-23 05:40:00,
2013-02-23 00:55:00,24.3,19.0,30.31,NNW,328,0.0,2.0,81,0.00,,,0.00,weatherlink.com 1.10,2013-02-23 05:55:00,
2013-02-23 01:10:00,24.2,19.0,30.32,West,269,0.0,3.0,82,0.00,,,0.00,weatherlink.com 1.10,2013-02-23 06:10:00,
2013-02-23 01:40:00,23.8,19.0,30.31,WNW,291,0.0,20.0,83,0.00,,,0.00,weatherlink.com 1.10,2013-02-23 06:40:00,
2013-02-23 01:55:00,24.3,20.0,30.31,WNW,291,0.0,224.0,83,0.00,,,0.00,weatherlink.com 1.10,2013-02-23 06:55:00,
2013-02-23 02:10:00,24.8,20.0,30.30,SE,139,1.0,19.0,82,0.00,,,0.00,weatherlink.com 1.10,2013-02-23 07:10:00,
2013-02-23 02:26:00,25.2,20.0,30.30,SSE,159,2.0,4.0,81,0.00,,,0.00,weatherlink.com 1.10,2013-02-23 07:26:00,
2013-02-23 02:40:00,25.5,20.0,30.30,WSW,239,3.0,6.0,80,0.00,,,0.00,weatherlink.com 1.10,2013-02-23 07:40:00,
2013-02-23 02:56:00,25.5,20.0,30.30,WSW,252,0.0,4.0,80,0.00,,,0.00,weatherlink.com 1.10,2013-02-23 07:56:00,
2013-02-23 03:10:00,25.5,20.0,30.29,SE,132,3.0,8.0,80,0.00,,,0.00,weatherlink.com 1.10,2013-02-23 08:10:00,
2013-02-23 03:25:00,25.5,20.0,30.29,SE,125,1.0,7.0,80,0.00,,,0.00,weatherlink.com 1.10,2013-02-23 08:25:00,
2013-02-23 03:40:00,25.6,21.0,30.28,NE,43,3.0,7.0,81,0.00,,,0.00,weatherlink.com 1.10,2013-02-23 08:40:00,
2013-02-23 03:56:00,25.5,20.0,30.27,ENE,78,1.0,5.0,81,0.00,,,0.00,weatherlink.com 1.10,2013-02-23 08:56:00,
2013-02-23 04:11:00,25.5,20.0,30.26,ENE,57,0.0,180.0,81,0.00,,,0.00,weatherlink.com 1.10,2013-02-23 09:11:00,
2013-02-23 04:26:00,25.6,21.0,30.27,ESE,104,4.0,12.0,82,0.00,,,0.00,weatherlink.com 1.10,2013-02-23 09:26:00,
2013-02-23 04:41:00,25.6,21.0,30.26,NNW,339,1.0,7.0,82,0.00,,,0.00,weatherlink.com 1.10,2013-02-23 09:41:00,
2013-02-23 04:56:00,25.5,21.0,30.26,NNE,29,1.0,6.0,82,0.00,,,0.00,weatherlink.com 1.10,2013-02-23 09:56:00,
2013-02-23 05:11:00,25.5,21.0,30.26,South,176,2.0,9.0,82,0.00,,,0.00,weatherlink.com 1.10,2013-02-23 10:11:00,
2013-02-23 05:26:00,25.5,21.0,30.26,East,101,1.0,7.0,82,0.00,,,0.00,weatherlink.com 1.10,2013-02-23 10:26:00,
2013-02-23 05:41:00,25.5,21.0,30.26,ESE,113,5.0,9.0,82,0.00,,,0.00,weatherlink.com 1.10,2013-02-23 10:41:00,
2013-02-23 05:56:00,25.4,21.0,30.26,East,80,2.0,6.0,83,0.00,,,0.00,weatherlink.com 1.10,2013-02-23 10:56:00,
2013-02-23 06:11:00,25.3,21.0,30.25,East,97,4.0,7.0,83,0.00,,,0.00,weatherlink.com 1.10,2013-02-23 11:11:00,
2013-02-23 06:26:00,25.3,21.0,30.25,SSE,163,2.0,9.0,85,0.00,,,0.00,weatherlink.com 1.10,2013-02-23 11:26:00,
2013-02-23 06:41:00,25.1,22.0,30.24,SSE,148,1.0,145.0,87,0.00,,,0.00,weatherlink.com 1.10,2013-02-23 11:41:00,
2013-02-23 06:56:00,25.1,22.0,30.24,WNW,285,3.0,9.0,88,0.00,,,0.00,weatherlink.com 1.10,2013-02-23 11:56:00,
2013-02-23 07:11:00,25.1,22.0,30.24,South,189,1.0,4.0,88,0.00,,,0.00,weatherlink.com 1.10,2013-02-23 12:11:00,
2013-02-23 07:26:00,25.1,22.0,30.24,NNE,15,5.0,7.0,88,0.00,,,0.00,weatherlink.com 1.10,2013-02-23 12:26:00,
2013-02-23 07:41:00,25.2,22.0,30.24,SE,130,2.0,7.0,88,0.00,,,0.00,weatherlink.com 1.10,2013-02-23 12:41:00,
2013-02-23 07:56:00,25.4,22.0,30.23,South,172,3.0,9.0,88,0.00,,,0.00,weatherlink.com 1.10,2013-02-23 12:56:00,
2013-02-23 08:11:00,25.5,23.0,30.23,East,84,3.0,9.0,88,0.00,,,0.00,weatherlink.com 1.10,2013-02-23 13:11:00,
2013-02-23 08:26:00,25.8,23.0,30.23,WNW,294,2.0,6.0,88,0.00,,,0.00,weatherlink.com 1.10,2013-02-23 13:26:00,
2013-02-23 08:41:00,26.2,23.0,30.23,SSE,156,6.0,13.0,87,0.00,,,0.00,weatherlink.com 1.10,2013-02-23 13:41:00,
2013-02-23 08:56:00,26.5,23.0,30.22,East,101,4.0,14.0,87,0.00,,,0.00,weatherlink.com 1.10,2013-02-23 13:56:00,
2013-02-23 09:11:00,26.9,23.0,30.21,ESE,104,3.0,9.0,86,0.00,,,0.00,weatherlink.com 1.10,2013-02-23 14:11:00,
2013-02-23 09:26:00,27.1,24.0,30.21,WNW,285,2.0,8.0,86,0.00,,,0.00,weatherlink.com 1.10,2013-02-23 14:26:00,
2013-02-23 09:41:00,27.4,24.0,30.20,SE,139,1.0,5.0,86,0.00,,,0.00,weatherlink.com 1.10,2013-02-23 14:41:00,
2013-02-23 09:56:00,27.5,24.0,30.20,SW,216,2.0,9.0,86,0.00,,,0.00,weatherlink.com 1.10,2013-02-23 14:56:00,
2013-02-23 10:11:00,27.6,24.0,30.20,South,188,6.0,8.0,87,0.00,,,0.00,weatherlink.com 1.10,2013-02-23 15:11:00,
2013-02-23 10:26:00,27.9,25.0,30.19,SW,230,1.0,5.0,87,0.00,,,0.00,weatherlink.com 1.10,2013-02-23 15:26:00,
2013-02-23 10:41:00,28.3,25.0,30.19,WSW,249,3.0,8.0,88,0.00,,,0.00,weatherlink.com 1.10,2013-02-23 15:41:00,
2013-02-23 10:56:00,28.6,26.0,30.19,North,360,1.0,6.0,89,0.00,,,0.00,weatherlink.com 1.10,2013-02-23 15:56:00,
2013-02-23 11:11:00,28.9,26.0,30.18,WSW,257,6.0,6.0,90,0.00,,,0.00,weatherlink.com 1.10,2013-02-23 16:11:00,
2013-02-23 11:27:00,28.6,26.0,30.18,West,262,1.0,5.0,91,0.00,,,0.00,weatherlink.com 1.10,2013-02-23 16:27:00,
2013-02-23 11:42:00,28.7,26.0,30.17,South,179,2.0,5.0,91,0.00,,,0.00,weatherlink.com 1.10,2013-02-23 16:42:00,
2013-02-23 11:57:00,28.7,26.0,30.16,West,269,1.0,5.0,91,0.00,,,0.00,weatherlink.com 1.10,2013-02-23 16:57:00,
2013-02-23 12:12:00,28.7,27.0,30.15,NNW,347,0.0,4.0,92,0.00,,,0.00,weatherlink.com 1.10,2013-02-23 17:12:00,
2013-02-23 12:27:00,28.7,27.0,30.14,ESE,122,2.0,9.0,92,0.00,,,0.00,weatherlink.com 1.10,2013-02-23 17:27:00,
2013-02-23 12:42:00,29.0,27.0,30.14,NNW,343,4.0,4.0,93,0.00,,,0.00,weatherlink.com 1.10,2013-02-23 17:42:00,
2013-02-23 12:57:00,28.7,27.0,30.13,SSE,148,1.0,6.0,92,0.00,,,0.00,weatherlink.com 1.10,2013-02-23 17:57:00,
2013-02-23 13:12:00,28.5,27.0,30.14,SE,143,1.0,4.0,93,0.00,,,0.00,weatherlink.com 1.10,2013-02-23 18:12:00,
2013-02-23 13:27:00,28.2,27.0,30.13,West,274,2.0,5.0,93,0.00,,,0.00,weatherlink.com 1.10,2013-02-23 18:27:00,
2013-02-23 13:42:00,28.0,27.0,30.13,NNW,346,0.0,6.0,94,0.00,,,0.00,weatherlink.com 1.10,2013-02-23 18:42:00,
2013-02-23 13:57:00,28.2,27.0,30.12,WNW,292,1.0,4.0,95,0.00,,,0.00,weatherlink.com 1.10,2013-02-23 18:57:00,
2013-02-23 14:12:00,28.4,27.0,30.12,SSW,204,1.0,6.0,95,0.00,,,0.00,weatherlink.com 1.10,2013-02-23 19:12:00,
2013-02-23 14:27:00,28.4,27.0,30.12,West,265,1.0,5.0,95,0.00,,,0.00,weatherlink.com 1.10,2013-02-23 19:27:00,
2013-02-23 14:42:00,28.5,27.0,30.11,SSW,204,1.0,3.0,95,0.00,,,0.00,weatherlink.com 1.10,2013-02-23 19:42:00,
2013-02-23 14:57:00,28.6,27.0,30.11,South,184,2.0,7.0,95,0.00,,,0.00,weatherlink.com 1.10,2013-02-23 19:57:00,
2013-02-23 15:12:00,28.6,27.0,30.11,SSW,206,1.0,4.0,95,0.00,,,0.00,weatherlink.com 1.10,2013-02-23 20:12:00,
2013-02-23 15:27:00,28.8,28.0,30.09,WNW,285,1.0,5.0,95,0.00,,,0.00,weatherlink.com 1.10,2013-02-23 20:27:00,
2013-02-23 15:42:00,28.8,28.0,30.09,WNW,290,2.0,4.0,95,0.00,,,0.00,weatherlink.com 1.10,2013-02-23 20:42:00,
2013-02-23 15:57:00,28.8,28.0,30.08,NNW,345,2.0,5.0,95,0.00,,,0.00,weatherlink.com 1.10,2013-02-23 20:57:00,
2013-02-23 16:12:00,28.7,28.0,30.08,South,191,2.0,6.0,95,0.00,,,0.00,weatherlink.com 1.10,2013-02-23 21:12:00,
2013-02-23 16:27:00,28.7,28.0,30.08,NNW,348,1.0,3.0,96,0.00,,,0.00,weatherlink.com 1.10,2013-02-23 21:27:00,
2013-02-23 16:42:00,28.6,28.0,30.08,WSW,252,1.0,4.0,96,0.00,,,0.00,weatherlink.com 1.10,2013-02-23 21:42:00,
2013-02-23 16:57:00,28.6,28.0,30.07,WNW,284,1.0,3.0,96,0.00,,,0.00,weatherlink.com 1.10,2013-02-23 21:57:00,
2013-02-23 17:12:00,28.5,28.0,30.07,NW,314,2.0,3.0,96,0.00,,,0.00,weatherlink.com 1.10,2013-02-23 22:12:00,
2013-02-23 17:27:00,28.5,28.0,30.07,WNW,287,3.0,4.0,96,0.00,,,0.00,weatherlink.com 1.10,2013-02-23 22:27:00,
2013-02-23 17:42:00,28.5,28.0,30.06,South,191,2.0,5.0,96,0.00,,,0.00,weatherlink.com 1.10,2013-02-23 22:42:00,
2013-02-23 17:57:00,28.5,28.0,30.06,West,280,2.0,4.0,96,0.00,,,0.00,weatherlink.com 1.10,2013-02-23 22:57:00,
2013-02-23 18:12:00,28.5,28.0,30.06,WNW,285,2.0,4.0,96,0.00,,,0.00,weatherlink.com 1.10,2013-02-23 23:12:00,
2013-02-23 18:27:00,28.5,28.0,30.06,West,269,2.0,3.0,97,0.00,,,0.00,weatherlink.com 1.10,2013-02-23 23:27:00,
2013-02-23 18:42:00,28.5,28.0,30.06,WNW,301,2.0,5.0,97,0.00,,,0.00,weatherlink.com 1.10,2013-02-23 23:42:00,
2013-02-23 18:57:00,28.5,28.0,30.05,West,274,0.0,4.0,97,0.00,,,0.00,weatherlink.com 1.10,2013-02-23 23:57:00,
2013-02-23 19:12:00,28.4,28.0,30.04,WSW,238,1.0,3.0,97,0.00,,,0.00,weatherlink.com 1.10,2013-02-24 00:12:00,
2013-02-23 19:27:00,28.5,28.0,30.04,WNW,283,2.0,4.0,97,0.00,,,0.00,weatherlink.com 1.10,2013-02-24 00:27:00,
2013-02-23 19:42:00,28.4,28.0,30.04,West,280,0.0,3.0,97,0.00,,,0.00,weatherlink.com 1.10,2013-02-24 00:42:00,
2013-02-23 19:57:00,28.4,28.0,30.03,WNW,287,2.0,6.0,97,0.00,,,0.00,weatherlink.com 1.10,2013-02-24 00:57:00,
2013-02-23 20:12:00,28.4,28.0,30.03,SSW,208,1.0,5.0,97,0.00,,,0.00,weatherlink.com 1.10,2013-02-24 01:12:00,
2013-02-23 20:27:00,28.5,28.0,30.02,WNW,291,1.0,5.0,97,0.00,,,0.00,weatherlink.com 1.10,2013-02-24 01:27:00,
2013-02-23 20:42:00,28.5,28.0,30.02,West,263,3.0,4.0,97,0.00,,,0.00,weatherlink.com 1.10,2013-02-24 01:42:00,
2013-02-23 20:57:00,28.5,28.0,30.02,WSW,246,1.0,4.0,97,0.00,,,0.00,weatherlink.com 1.10,2013-02-24 01:57:00,
2013-02-23 21:12:00,28.5,28.0,30.03,WNW,298,0.0,4.0,97,0.00,,,0.00,weatherlink.com 1.10,2013-02-24 02:12:00,
2013-02-23 21:27:00,28.4,28.0,30.01,South,187,1.0,4.0,97,0.00,,,0.00,weatherlink.com 1.10,2013-02-24 02:27:00,
2013-02-23 21:44:00,28.5,28.0,30.01,WSW,252,1.0,5.0,97,0.00,,,0.00,weatherlink.com 1.10,2013-02-24 02:44:00,
2013-02-23 21:58:00,28.5,28.0,30.00,West,264,1.0,5.0,97,0.00,,,0.00,weatherlink.com 1.10,2013-02-24 02:58:00,
2013-02-23 22:13:00,28.4,28.0,30.00,WNW,292,1.0,4.0,97,0.00,,,0.00,weatherlink.com 1.10,2013-02-24 03:13:00,
2013-02-23 22:28:00,28.3,28.0,29.99,WNW,300,0.0,4.0,97,0.00,,,0.00,weatherlink.com 1.10,2013-02-24 03:28:00,
2013-02-23 22:43:00,28.2,28.0,29.98,WNW,290,2.0,2.0,97,0.00,,,0.00,weatherlink.com 1.10,2013-02-24 03:43:00,
2013-02-23 22:58:00,28.2,28.0,29.98,NW,315,0.0,3.0,97,0.00,,,0.00,weatherlink.com 1.10,2013-02-24 03:58:00,
2013-02-23 23:13:00,28.1,27.0,29.98,NW,314,1.0,3.0,97,0.00,,,0.00,weatherlink.com 1.10,2013-02-24 04:13:00,
2013-02-23 23:28:00,28.1,27.0,29.97,NW,308,2.0,4.0,97,0.00,,,0.00,weatherlink.com 1.10,2013-02-24 04:28:00,
2013-02-23 23:43:00,28.1,27.0,29.97,WNW,291,1.0,2.0,97,0.00,,,0.00,weatherlink.com 1.10,2013-02-24 04:43:00,
2013-02-23 23:58:00,28.1,27.0,29.97,WNW,291,1.0,5.0,97,0.00,,,0.00,weatherlink.com 1.10,2013-02-24 04:58:00,